SCP
0 0 0 0 0 0 0 0 0 0 0 -0 -0 0 0 0 0 0 0 0 0 0 0 0 0 0 0
0 0 0 0 0 0 0 0 0 0 0 0 0 0 0 0 0 0 0 0 0 0 0 0 0 0 0
0 0 0 0 0 0 0 0 0 0 0 0 0 0 0 0 0 0 0 0 0 0 0 0 0 0 0
0 0 0 0 0 0 0 0 0 0 0 0 0 0 0 0 0 0 0 0 0 0 0 0 0 0 0
0 0 0 0 0 0 0 0 0 0 0 0 0 0 0 0 0 0 0 0 0 0 0 0 0 0 0
0 0 0 0 0 0 0 0 0 0 0 0 0 0 0 0 0 0 0 0 0 0 0 0 0 0 0
0 0 0 0 0 0 0 0 0 0 0 0 0 0 0 0 0 0 0 0 0 0 0 0 0 0 0
0 0 0 0 0 0 0 0 0 0 0 0 0 0 0 0 0 0 0 0 0 0 0 0 0 0 0
0 0 0 0 0 0 0 0 0 0 0 0 0 0 0 0 0 0 0 0 0 0 0 0 0 0 0
0 0 0 0 0 0 0 0 0 0 0 0 0 0 0 0 0 0 0 0 0 0 0 0 0 0 0
0 0 0 0 0 0 0 0 0 0 0 0 0 0 0 0 0 0 0 0 0 0 0 0 0 0 0
0 0 0 0 0 0 0 0 0 0 0 0 0 0 0 0 0 0 0 0 0 0 0 0 0 0 0
0 0 0 0 0 0 0 0 0 0 0 0 0 0 0 0 0 0 0 0 0 0 0 0 0 0 0
0 0 0 0 0 0 0 0 0 0 0 0 0 0 0 0 0 0 0 0 0 0 0 0 0 0 0
0 0 0 0 0 0 0 0 0 0 0 0 0 0 0 0 0 0 0 0 0 0 0 0 0 0 0
0 0 0 0 0 0 0 0 0 0 0 0 0 0 0 0 0 0 0 0 0 0 0 0 0 0 0
Wind_Speed_500mb
43 43 44 45 43 42 40 37 36 33 30 28 25 22 19 18 18 17 16 14 13 12 12 13 14 15 16
45 48 50 48 45 44 43 42 40 38 36 31 27 24 22 21 18 15 13 12 10 10 10 10 11 12 13
49 47 52 51 48 49 48 45 42 38 33 31 29 25 22 20 18 15 14 13 12 11 11 11 12 13 14
56 46 55 57 55 52 47 43 40 38 36 33 30 26 23 21 20 19 17 16 15 13 13 14 15 16 18
64 55 57 60 57 53 47 45 43 41 37 34 31 27 26 25 23 21 19 18 16 15 15 15 17 18 19
67 63 57 60 59 55 52 50 47 44 41 37 33 31 30 28 26 23 21 19 18 18 18 17 16 16 16
72 70 66 64 62 57 54 51 50 47 42 38 36 34 32 29 27 24 22 22 21 20 17 16 17 18 19
77 72 69 66 63 60 57 55 52 48 45 41 38 35 33 31 27 25 25 24 23 20 18 17 18 19 21
81 73 71 69 67 64 60 59 56 53 48 44 41 39 35 32 30 29 28 25 23 21 20 21 22 23 24
78 71 67 73 71 67 65 63 59 55 51 48 45 41 38 36 36 33 30 27 25 23 22 24 25 26 27
81 75 65 70 72 69 67 65 61 57 54 51 47 45 44 43 39 36 32 29 27 26 25 27 28 29 29
83 78 73 70 72 71 70 68 64 60 58 55 54 52 49 47 43 40 36 33 30 28 28 29 31 32 30
90 88 83 79 81 79 76 72 68 66 65 63 58 54 53 49 44 42 39 35 32 30 29 30 29 29 30
90 89 92 87 88 84 79 74 73 72 71 65 60 59 55 50 49 46 41 37 35 32 28 27 17 22 26
89 96 98 92 91 86 83 83 83 78 72 67 65 62 57 54 51 46 43 40 36 34 31 23 12 13 9
96 99 103 107 105 100 94 88 84 81 76 71 69 64 59 55 53 48 46 43 40 37 36 35 35 36 19
Wind_Direction_500mb
207 202 195 194 190 191 192 194 193 194 195 196 198 203 210 221 227 228 226 228 231 241 249 253 259 261 265
207 205 198 199 196 197 198 197 196 198 200 202 207 211 217 224 225 224 225 229 231 237 250 259 268 273 275
207 204 203 202 202 204 203 201 203 205 206 209 214 217 220 225 225 224 227 230 232 238 248 258 266 273 275
210 214 206 205 207 209 208 207 206 207 209 213 216 220 225 228 229 227 226 231 238 245 252 261 269 274 276
213 215 214 211 209 209 209 210 210 213 215 217 220 224 228 230 232 233 235 240 247 255 261 266 269 271 274
214 220 222 217 212 211 211 211 213 217 219 220 222 225 228 231 234 237 241 248 256 262 267 268 270 273 279
213 217 221 223 218 214 215 216 216 218 222 225 227 229 230 232 234 238 244 251 256 259 260 262 268 274 278
213 216 220 223 219 217 217 220 222 222 223 226 229 232 233 234 236 241 246 249 251 252 255 264 273 280 284
217 218 221 222 219 218 219 220 221 223 226 228 230 232 234 238 242 244 246 248 251 258 268 276 280 283 284
225 226 225 217 216 217 220 222 223 224 226 228 230 232 235 238 239 240 242 245 249 255 264 272 277 282 285
226 229 232 218 218 218 221 224 225 227 229 231 232 233 235 236 237 237 239 243 249 258 267 276 282 284 283
227 228 228 219 221 222 223 226 228 230 231 231 231 231 233 235 235 236 238 241 248 258 269 276 282 282 278
225 225 224 220 219 221 224 225 227 230 232 231 231 232 233 233 234 236 238 242 249 259 271 278 280 278 273
227 229 227 224 222 223 224 225 227 228 229 230 231 232 233 233 235 237 241 245 250 259 266 277 281 278 265
232 226 226 227 228 225 224 225 226 226 228 229 231 232 231 232 235 239 242 247 253 259 264 259 266 242 266
235 231 227 227 225 227 227 226 226 227 228 229 229 230 231 233 235 239 243 247 252 259 263 262 257 256 260
Wind_Speed_850mb
43 43 44 45 43 42 40 37 36 33 30 28 25 22 19 18 18 17 16 14 13 12 12 13 14 15 16
45 48 50 48 45 44 43 42 40 38 36 31 27 24 22 21 18 15 13 12 10 10 10 10 11 12 13
49 47 52 51 48 49 48 45 42 38 33 31 29 25 22 20 18 15 14 13 12 11 11 11 12 13 14
56 46 55 57 55 52 47 43 40 38 36 33 30 26 23 21 20 19 17 16 15 13 13 14 15 16 18
64 55 57 60 57 53 47 45 43 41 37 34 31 27 26 25 23 21 19 18 16 15 15 15 17 18 19
67 63 57 60 59 55 52 50 47 44 41 37 33 31 30 28 26 23 21 19 18 18 18 17 16 16 16
72 70 66 64 62 57 54 51 50 47 42 38 36 34 32 29 27 24 22 22 21 20 17 16 17 18 19
77 72 69 66 63 60 57 55 52 48 45 41 38 35 33 31 27 25 25 24 23 20 18 17 18 19 21
81 73 71 69 67 64 60 59 56 53 48 44 41 39 35 32 30 29 28 25 23 21 20 21 22 23 24
78 71 67 73 71 67 65 63 59 55 51 48 45 41 38 36 36 33 30 27 25 23 22 24 25 26 27
81 75 65 70 72 69 67 65 61 57 54 51 47 45 44 43 39 36 32 29 27 26 25 27 28 29 29
83 78 73 70 72 71 70 68 64 60 58 55 54 52 49 47 43 40 36 33 30 28 28 29 31 32 30
90 88 83 79 81 79 76 72 68 66 65 63 58 54 53 49 44 42 39 35 32 30 29 30 29 29 30
90 89 92 87 88 84 79 74 73 72 71 65 60 59 55 50 49 46 41 37 35 32 28 27 17 22 26
89 96 98 92 91 86 83 83 83 78 72 67 65 62 57 54 51 46 43 40 36 34 31 23 12 13 9
96 99 103 107 105 100 94 88 84 81 76 71 69 64 59 55 53 48 46 43 40 37 36 35 35 36 19
Wind_Direction_850mb
207 202 195 194 190 191 192 194 193 194 195 196 198 203 210 221 227 228 226 228 231 241 249 253 259 261 265
207 205 198 199 196 197 198 197 196 198 200 202 207 211 217 224 225 224 225 229 231 237 250 259 268 273 275
207 204 203 202 202 204 203 201 203 205 206 209 214 217 220 225 225 224 227 230 232 238 248 258 266 273 275
210 214 206 205 207 209 208 207 206 207 209 213 216 220 225 228 229 227 226 231 238 245 252 261 269 274 276
213 215 214 211 209 209 209 210 210 213 215 217 220 224 228 230 232 233 235 240 247 255 261 266 269 271 274
214 220 222 217 212 211 211 211 213 217 219 220 222 225 228 231 234 237 241 248 256 262 267 268 270 273 279
213 217 221 223 218 214 215 216 216 218 222 225 227 229 230 232 234 238 244 251 256 259 260 262 268 274 278
213 216 220 223 219 217 217 220 222 222 223 226 229 232 233 234 236 241 246 249 251 252 255 264 273 280 284
217 218 221 222 219 218 219 220 221 223 226 228 230 232 234 238 242 244 246 248 251 258 268 276 280 283 284
225 226 225 217 216 217 220 222 223 224 226 228 230 232 235 238 239 240 242 245 249 255 264 272 277 282 285
226 229 232 218 218 218 221 224 225 227 229 231 232 233 235 236 237 237 239 243 249 258 267 276 282 284 283
227 228 228 219 221 222 223 226 228 230 231 231 231 231 233 235 235 236 238 241 248 258 269 276 282 282 278
225 225 224 220 219 221 224 225 227 230 232 231 231 232 233 233 234 236 238 242 249 259 271 278 280 278 273
227 229 227 224 222 223 224 225 227 228 229 230 231 232 233 233 235 237 241 245 250 259 266 277 281 278 265
232 226 226 227 228 225 224 225 226 226 228 229 231 232 231 232 235 239 242 247 253 259 264 259 266 242 266
235 231 227 227 225 227 227 226 226 227 228 229 229 230 231 233 235 239 243 247 252 259 263 262 257 256 260